When you browse on this site, cookies collect data to enhance your experience and personalize the content and advertising you see.
Visit our Privacy Policy to learn more. By continuing to use the site, you agree to this use of cookies and data.
  • In Portugal
  • List of Countries
  • For 7 days
  • Water Temperature
  • Satellite Maps
  • Weather Map
  • Weather Widgets
  • user-avatar
    Login

    Hourly Weather Ciuslice

    Today, 22 March, Friday

    Time Temperature Precipitation Wind Pressure Humidity
    00:00 +7°C° 0 mm 2 mps 755 mmHg 89%
    01:00 +5°C° 0 mm 3 mps 754 mmHg 90%
    02:00 +5°C° 0 mm 3 mps 754 mmHg 89%
    03:00 +7°C° 0 mm 3 mps 754 mmHg 88%
    04:00 +7°C° 0 mm 3 mps 754 mmHg 87%
    05:00 +7°C° 0 mm 3 mps 754 mmHg 86%
    06:00 +7°C° 0 mm 4 mps 754 mmHg 86%
    07:00 +7°C° 0 mm 4 mps 754 mmHg 84%
    08:00 +8°C° 0 mm 4 mps 754 mmHg 84%
    09:00 +8°C° 0 mm 4 mps 754 mmHg 83%
    10:00 +10°C° 0 mm 4 mps 755 mmHg 82%
    11:00 +10°C° 0 mm 3 mps 755 mmHg 79%
    12:00 +11°C° 0 mm 3 mps 755 mmHg 76%
    13:00 +12°C° 0 mm 3 mps 755 mmHg 72%
    14:00 +12°C° 0 mm 3 mps 754 mmHg 71%
    15:00 +13°C° 0 mm 2 mps 754 mmHg 69%
    16:00 +13°C° 0 mm 2 mps 754 mmHg 68%
    17:00 +13°C° 0 mm 2 mps 754 mmHg 72%
    18:00 +12°C° 0 mm 2 mps 754 mmHg 76%
    19:00 +10°C° 0 mm 2 mps 754 mmHg 80%
    20:00 +9°C° 0 mm 2 mps 754 mmHg 82%
    21:00 +8°C° 0 mm 2 mps 754 mmHg 85%
    22:00 +7°C° 0 mm 2 mps 754 mmHg 87%
    23:00 +7°C° 0 mm 2 mps 754 mmHg 88%

    Tomorrow, 23 March, Saturday

    Time Temperature Precipitation Wind Pressure Humidity
    00:00 +7°C° 0 mm 1 mps 754 mmHg 89%
    01:00 +7°C° 0 mm 1 mps 754 mmHg 90%
    02:00 +6°C° 0 mm 1 mps 753 mmHg 90%
    03:00 +6°C° 0 mm 1 mps 753 mmHg 91%
    04:00 +6°C° 0 mm 1 mps 753 mmHg 91%
    05:00 +6°C° 0 mm 1 mps 753 mmHg 90%
    06:00 +6°C° 0 mm 1 mps 753 mmHg 88%
    07:00 +5°C° 0 mm 2 mps 753 mmHg 87%
    08:00 +7°C° 0 mm 2 mps 752 mmHg 79%
    09:00 +9°C° 0 mm 2 mps 752 mmHg 70%
    10:00 +12°C° 0 mm 2 mps 752 mmHg 62%
    11:00 +13°C° 0 mm 2 mps 752 mmHg 56%
    12:00 +14°C° 0 mm 2 mps 751 mmHg 50%
    13:00 +15°C° 0 mm 2 mps 751 mmHg 44%
    14:00 +15°C° 0 mm 2 mps 751 mmHg 43%
    15:00 +16°C° 0 mm 1 mps 750 mmHg 42%
    16:00 +16°C° 0 mm 1 mps 750 mmHg 41%
    17:00 +14°C° 0 mm 1 mps 750 mmHg 45%
    18:00 +13°C° 0 mm 1 mps 749 mmHg 49%
    19:00 +12°C° 0 mm 1 mps 749 mmHg 53%
    20:00 +11°C° 0 mm 1 mps 749 mmHg 55%
    21:00 +11°C° 0 mm 1 mps 749 mmHg 57%
    22:00 +9°C° 0 mm 2 mps 749 mmHg 60%
    23:00 +9°C° 0 mm 2 mps 749 mmHg 65%

    Day after tomorrow, 24 March, Sunday

    Time Temperature Precipitation Wind Pressure Humidity
    00:00 +9°C° 0 mm 2 mps 749 mmHg 70%
    01:00 +9°C° 0 mm 2 mps 749 mmHg 76%
    02:00 +9°C° 0 mm 2 mps 749 mmHg 79%
    03:00 +9°C° 0 mm 3 mps 749 mmHg 82%
    04:00 +9°C° 0 mm 3 mps 749 mmHg 86%
    05:00 +9°C° 0 mm 3 mps 749 mmHg 86%
    06:00 +8°C° 0 mm 3 mps 749 mmHg 87%
    07:00 +7°C° 0 mm 4 mps 749 mmHg 87%
    08:00 +9°C° 0 mm 3 mps 749 mmHg 77%
    09:00 +10°C° 0 mm 3 mps 750 mmHg 67%
    10:00 +10°C° 0 mm 3 mps 750 mmHg 57%
    11:00 +11°C° 0 mm 3 mps 749 mmHg 52%
    12:00 +12°C° 0 mm 3 mps 749 mmHg 48%
    13:00 +13°C° 0 mm 4 mps 749 mmHg 43%
    14:00 +12°C° 0 mm 4 mps 748 mmHg 42%
    15:00 +12°C° 0 mm 4 mps 748 mmHg 41%
    16:00 +11°C° 0 mm 4 mps 747 mmHg 40%
    17:00 +10°C° 0 mm 4 mps 747 mmHg 41%
    18:00 +9°C° 0 mm 3 mps 748 mmHg 43%
    19:00 +9°C° 0 mm 2 mps 748 mmHg 45%
    20:00 +8°C° 0 mm 2 mps 748 mmHg 49%
    21:00 +6°C° 0 mm 2 mps 748 mmHg 53%
    22:00 +4°C° 0 mm 3 mps 748 mmHg 58%
    23:00 +5°C° 0 mm 2 mps 748 mmHg 60%

    25 March, Monday

    Time Temperature Precipitation Wind Pressure Humidity
    00:00 +5°C° 0 mm 2 mps 748 mmHg 62%
    01:00 +4°C° 0 mm 2 mps 747 mmHg 64%
    02:00 +4°C° 0 mm 2 mps 747 mmHg 65%
    03:00 +4°C° 0 mm 2 mps 747 mmHg 67%
    04:00 +2°C° 0 mm 3 mps 746 mmHg 68%
    05:00 +3°C° 0 mm 3 mps 746 mmHg 66%
    06:00 +3°C° 0 mm 3 mps 746 mmHg 64%
    07:00 +4°C° 0 mm 4 mps 746 mmHg 62%
    08:00 +5°C° 0 mm 5 mps 746 mmHg 58%
    09:00 +6°C° 0 mm 5 mps 745 mmHg 54%
    10:00 +7°C° 0 mm 6 mps 745 mmHg 50%
    11:00 +6°C° 0 mm 7 mps 744 mmHg 46%
    12:00 +8°C° 0 mm 7 mps 743 mmHg 42%
    13:00 +9°C° 0 mm 7 mps 743 mmHg 39%
    14:00 +7°C° 0.1 mm 8 mps 742 mmHg 42%
    15:00 +7°C° 0.1 mm 8 mps 742 mmHg 46%
    16:00 +6°C° 0.1 mm 8 mps 741 mmHg 49%
    17:00 +5°C° 0.9 mm 8 mps 741 mmHg 54%
    18:00 +4°C° 0.9 mm 7 mps 741 mmHg 58%
    19:00 +3°C° 0.9 mm 6 mps 741 mmHg 62%
    20:00 +2°C° 0.1 mm 6 mps 742 mmHg 65%
    21:00 +2°C° 0.1 mm 6 mps 742 mmHg 69%
    22:00 +2°C° 0.1 mm 6 mps 743 mmHg 72%
    23:00 +1°C° 0.3 mm 6 mps 743 mmHg 75%

    26 March, Tuesday

    Time Temperature Precipitation Wind Pressure Humidity
    00:00 +1°C° 0.3 mm 6 mps 743 mmHg 77%
    01:00 -1°C° 0.3 mm 7 mps 744 mmHg 80%
    02:00 -1°C° 0.3 mm 7 mps 745 mmHg 80%
    03:00 -1°C° 0.3 mm 7 mps 745 mmHg 81%
    04:00 -1°C° 0.3 mm 7 mps 746 mmHg 81%
    05:00 -1°C° 0 mm 7 mps 747 mmHg 82%
    06:00 -1°C° 0 mm 6 mps 748 mmHg 83%
    07:00 -1°C° 0 mm 6 mps 749 mmHg 84%
    08:00 +1°C° 0.1 mm 6 mps 750 mmHg 82%
    09:00 +1°C° 0.1 mm 6 mps 750 mmHg 80%
    10:00 0°C° 0.1 mm 7 mps 751 mmHg 78%
    11:00 +2°C° 0.1 mm 6 mps 752 mmHg 76%
    12:00 +2°C° 0.1 mm 6 mps 752 mmHg 74%
    13:00 +2°C° 0.1 mm 6 mps 752 mmHg 72%
    14:00 +3°C° 0 mm 5 mps 752 mmHg 67%
    15:00 +3°C° 0 mm 5 mps 752 mmHg 62%
    16:00 +5°C° 0 mm 4 mps 752 mmHg 57%
    17:00 +4°C° 0 mm 4 mps 753 mmHg 61%
    18:00 +2°C° 0 mm 3 mps 753 mmHg 65%
    19:00 +2°C° 0 mm 2 mps 753 mmHg 69%
    20:00 +2°C° 0 mm 2 mps 754 mmHg 72%
    21:00 +2°C° 0 mm 2 mps 754 mmHg 74%
    22:00 +2°C° 0 mm 2 mps 754 mmHg 77%
    23:00 +1°C° 0 mm 2 mps 754 mmHg 77%

    27 March, Wednesday

    Time Temperature Precipitation Wind Pressure Humidity
    00:00 0°C° 0 mm 3 mps 754 mmHg 78%
    01:00 0°C° 0 mm 3 mps 754 mmHg 78%
    02:00 0°C° 0 mm 3 mps 753 mmHg 78%
    03:00 -1°C° 0 mm 3 mps 753 mmHg 77%
    04:00 -1°C° 0 mm 3 mps 753 mmHg 76%
    05:00 -1°C° 0 mm 4 mps 753 mmHg 72%
    06:00 0°C° 0 mm 4 mps 753 mmHg 67%
    07:00 +1°C° 0 mm 5 mps 753 mmHg 63%
    08:00 +2°C° 0 mm 5 mps 752 mmHg 59%
    09:00 +3°C° 0 mm 5 mps 752 mmHg 54%
    10:00 +5°C° 0 mm 5 mps 752 mmHg 50%
    11:00 +5°C° 0 mm 6 mps 752 mmHg 51%
    12:00 +7°C° 0 mm 6 mps 752 mmHg 51%
    13:00 +8°C° 0 mm 6 mps 752 mmHg 52%
    14:00 +7°C° 0 mm 6 mps 752 mmHg 57%
    15:00 +7°C° 0 mm 5 mps 751 mmHg 63%
    16:00 +7°C° 0 mm 5 mps 751 mmHg 68%
    17:00 +6°C° 0 mm 4 mps 752 mmHg 73%
    18:00 +5°C° 0 mm 4 mps 752 mmHg 77%
    19:00 +5°C° 0 mm 4 mps 752 mmHg 82%
    20:00 +5°C° 0.1 mm 3 mps 752 mmHg 84%
    21:00 +4°C° 0.1 mm 3 mps 752 mmHg 86%
    22:00 +4°C° 0.1 mm 3 mps 753 mmHg 88%
    23:00 +4°C° 0 mm 3 mps 753 mmHg 89%
    Show more